Regional Weather Roundup
Issued by NWS Cleveland, OH

Home | Current Version | Previous Version | Text Only | Print | Product List | Glossary Off
Versions: 1 2 3 4 5 6 7 8 9 10 11 12 13 14 15 16 17 18 19 20 21 22 23 24 25 26 27 28 29 30 31 32 33 34 35 36 37 38 39 40 41 42 43 44 45 46 47 48 49 50

000
ASUS41 KCLE 091700
RWRCLE
OHIO REGIONAL WEATHER ROUNDUP
NATIONAL WEATHER SERVICE WILMINGTON, OH
1200 PM EST FRI DEC 09 2016

NOTE: "FAIR" INDICATES FEW OR NO CLOUDS BELOW 12,000 FEET WITH NO
SIGNIFICANT WEATHER AND/OR OBSTRUCTIONS TO VISIBILITY.

OHZ001>008-015>018-024>027-034-035-043-044-091800-
   NORTHWEST OHIO

CITY           SKY/WX    TMP DP  RH WIND       PRES   REMARKS
DEFIANCE       FLURRIES  28  22  78 W5        30.45S WCI  23
FINDLAY        FLURRIES  28  20  71 W17       30.43F WCI  16
TOLEDO EXPRESS CLOUDY    29  24  82 W9        30.41F WCI  20
TOLEDO EXEC    CLOUDY    31  24  75 W9        30.42F WCI  23
LIMA           CLOUDY    24  20  84 W18       30.45S WCI  10
$$

OHZ009>014-019>023-028>033-038-089-091800-
   NORTHEAST OHIO

CITY           SKY/WX    TMP DP  RH WIND       PRES   REMARKS
CLE-HOPKINS    CLOUDY    29  19  66 SW16      30.41F WCI  17
CLE-LAKEFRONT  PTSUNNY   30  23  75 W22       30.37F WCI  17
CUY CO. ARPT   LGT SNOW  28  23  80 W14G23    30.36S VSB 3/4 WCI  17
LORAIN-ELYRIA  CLOUDY    26  19  74 W14       30.40F WCI  14
ASHTABULA      LGT SNOW  26  24  92 W10       30.32F FOG     WCI  16
AKRON-CANTON   LGT SNOW  26  18  71 W15       30.37S WCI  14
WOOSTER        NOT AVBL
MANSFIELD      LGT SNOW  23  19  85 W14G20    30.39F FOG     WCI  11
YOUNGSTOWN     SNOW      26  20  77 W15       30.33F VSB 1/2 WCI  14
$$

OHZ042-051>053-060>062-070>072-077>081-091800-
  SOUTHWEST OHIO

CITY           SKY/WX    TMP DP  RH WIND       PRES   REMARKS
CINC-COVINGTON FLURRIES  23  13  65 W12       30.54F WCI  12
CINC-LUNKEN    LGT SNOW  25  15  66 W8        30.59F WCI  16
HAMILTON       CLOUDY    27  16  63 W12       30.56F WCI  17
DAYTON         NOT AVBL
WRIGHT-PAT AFB NOT AVBL
DAYTON GENERAL CLOUDY    25  15  66 W8        30.50F WCI  16
WILMINGTON     PTSUNNY   25  16  68 W13       30.50F WCI  14
$$

OHZ036-037-039>041-045>050-054>059-063>069-073>076-082>088-091800-
  CENTRAL AND SOUTHEAST OHIO

CITY           SKY/WX    TMP DP  RH WIND       PRES   REMARKS
COLUMBUS       CLOUDY    27  18  69 W13       30.47F WCI  16
OSU AIRPORT    CLOUDY    25  17  72 W16G24    30.46F WCI  12
BOLTON FIELD   NOT AVBL
RICKENBACK AFB NOT AVBL
NEWARK         CLOUDY    27  17  66 SW12      30.44F WCI  17
MARION         LGT SNOW  24  19  81 W14       30.43F WCI  12
LANCASTER      PTSUNNY   26  17  68 W16       30.48F WCI  14
ZANESVILLE     CLOUDY    26  16  65 W13       30.45F WCI  15
NEW PHILLY     CLOUDY    25  19  78 W7        30.43F WCI  17
$$



USA.gov is the U.S. government's official web portal to all federal, state and local government web resources and services.